Waarnemingen

Advertentie
Mijn weer
Cozzo Spadaro, Italië (16480): temperatuur & dauwpunt: 09.08.2018 01:00:00 - 15.08.2018 01:00:00 (CEST)Cozzo Spadaro, Italië (16480): windsnelheid: 09.08.2018 01:00:00 - 15.08.2018 01:00:00 (CEST)Cozzo Spadaro, Italië (16480): windrichting: 09.08.2018 01:00:00 - 15.08.2018 01:00:00 (CEST)Cozzo Spadaro, Italië (16480): luchtdruk: 09.08.2018 01:00:00 - 15.08.2018 01:00:00 (CEST)Cozzo Spadaro, Italië (16480): zicht: 09.08.2018 01:00:00 - 15.08.2018 01:00:00 (CEST)Cozzo Spadaro, Italië (16480): Zonneschijnduur: 09.08.2018 01:00:00 - 15.08.2018 01:00:00 (CEST)
Datum & Tijd tt [°C] td [°C] ff [km/u] ff [kn] dd ppp [hPa] vv [km] sd [min]
15.08.2018 01:00:00 - - - - - - - -
15.08.2018 00:00:00 - - - - - - - -
14.08.2018 23:00:00 - - - - - - - -
14.08.2018 22:00:00 - - - - - - - -
14.08.2018 21:00:00 - - - - - - - -
14.08.2018 20:00:00 29,8 24,4 5 3 NNW 1009,8 18 0
14.08.2018 19:00:00 29,4 24,7 15 8 W 1009,8 18 60
14.08.2018 18:00:00 30,0 24,2 16 9 W 1009,8 18 60
14.08.2018 17:00:00 30,2 24,1 15 8 W 1009,8 18 60
14.08.2018 16:00:00 30,0 24,6 16 9 W 1009,8 18 60
14.08.2018 15:00:00 30,4 24,3 15 8 WZW 1010,4 18 60
14.08.2018 14:00:00 30,8 24,7 16 9 W 1010,8 18 60
14.08.2018 13:00:00 30,8 23,7 13 7 ZW 1011,2 18 60
14.08.2018 12:00:00 30,6 23,8 13 7 ZW 1011,4 18 60
14.08.2018 11:00:00 30,2 21,9 2 1 ZZO 1011,3 15 60
14.08.2018 10:00:00 28,8 21,6 2 1 O 1011,1 15 54
14.08.2018 09:00:00 27,6 21,6 0 0 N 1010,9 15 6
14.08.2018 08:00:00 26,6 21,8 0 0 N 1010,9 12 0
14.08.2018 07:00:00 - - - - - - - -
14.08.2018 06:00:00 - - - - - - - -
14.08.2018 05:00:00 - - - - - - - -
14.08.2018 04:00:00 - - - - - - - -
14.08.2018 03:00:00 - - - - - - - -
14.08.2018 02:00:00 - - - - - - - -
14.08.2018 01:00:00 - - - - - - - -
14.08.2018 00:00:00 - - - - - - - -
13.08.2018 23:00:00 - - - - - - - -
13.08.2018 22:00:00 - - - - - - - -
13.08.2018 21:00:00 - - - - - - - -
13.08.2018 20:00:00 28,4 24,4 13 7 W 1010,9 15 0
13.08.2018 19:00:00 29,0 23,2 15 8 W 1010,9 15 18
13.08.2018 18:00:00 30,2 23,4 15 8 WZW 1011,0 15 30
13.08.2018 17:00:00 30,4 22,0 16 9 W 1011,2 15 54
13.08.2018 16:00:00 30,6 22,8 16 9 W 1012,1 15 36
13.08.2018 15:00:00 30,4 22,6 16 9 W 1012,2 15 42
13.08.2018 14:00:00 30,2 22,6 15 8 WZW 1013,0 15 42
13.08.2018 13:00:00 30,0 23,2 13 7 WZW 1013,9 15 42
13.08.2018 12:00:00 30,2 23,4 13 7 W 1013,9 15 48
13.08.2018 11:00:00 30,2 25,7 9 5 ZW 1013,4 15 42
13.08.2018 10:00:00 29,0 23,4 5 3 ZW 1013,0 15 42
13.08.2018 09:00:00 28,2 23,8 2 1 WZW 1013,0 15 30
13.08.2018 08:00:00 27,2 24,5 0 0 N 1012,8 15 60
13.08.2018 07:00:00 - - - - - - - -
13.08.2018 06:00:00 - - - - - - - -
13.08.2018 05:00:00 - - - - - - - -
13.08.2018 04:00:00 - - - - - - - -
13.08.2018 03:00:00 - - - - - - - -
13.08.2018 02:00:00 - - - - - - - -
13.08.2018 01:00:00 - - - - - - - -
13.08.2018 00:00:00 - - - - - - - -
12.08.2018 23:00:00 - - - - - - - -
12.08.2018 22:00:00 - - - - - - - -
12.08.2018 21:00:00 - - - - - - - -
12.08.2018 20:00:00 28,8 25,4 4 2 ZW 1013,8 12 6
12.08.2018 19:00:00 29,4 25,4 4 2 ZW 1013,8 15 60
12.08.2018 18:00:00 30,0 25,5 8 4 ZW 1013,8 18 60
12.08.2018 17:00:00 30,4 26,3 9 5 Z 1013,9 15 60
12.08.2018 16:00:00 31,0 26,0 8 4 ZO 1014,8 15 60
12.08.2018 15:00:00 31,2 25,3 9 5 OZO 1014,8 25 60
12.08.2018 14:00:00 31,2 25,6 13 7 O 1015,1 25 60
12.08.2018 13:00:00 31,0 25,1 15 8 O 1015,2 25 60
12.08.2018 12:00:00 30,8 25,2 15 8 ONO 1014,9 25 60
12.08.2018 11:00:00 30,6 24,5 13 7 ONO 1014,8 25 60
12.08.2018 10:00:00 30,0 23,7 11 6 ONO 1014,8 25 60
12.08.2018 09:00:00 29,0 23,4 8 4 NO 1014,7 25 60
12.08.2018 08:00:00 27,6 23,6 5 3 NO 1014,5 18 60
12.08.2018 07:00:00 - - - - - - - -
12.08.2018 06:00:00 - - - - - - - -
12.08.2018 05:00:00 - - - - - - - -
12.08.2018 04:00:00 - - - - - - - -
12.08.2018 03:00:00 - - - - - - - -
12.08.2018 02:00:00 - - - - - - - -
12.08.2018 01:00:00 - - - - - - - -
12.08.2018 00:00:00 - - - - - - - -
11.08.2018 23:00:00 - - - - - - - -
11.08.2018 22:00:00 - - - - - - - -
11.08.2018 21:00:00 - - - - - - - -
11.08.2018 20:00:00 28,4 25,4 0 0 N 1014,2 12 12
11.08.2018 19:00:00 29,0 25,6 4 2 ZO 1014,3 15 60
11.08.2018 18:00:00 29,6 25,6 5 3 ZO 1014,7 20 36
11.08.2018 17:00:00 31,0 25,4 8 4 ZO 1014,7 25 60
11.08.2018 16:00:00 31,0 24,7 9 5 O 1014,8 25 60
11.08.2018 15:00:00 31,0 25,4 11 6 O 1015,7 25 60
11.08.2018 14:00:00 31,0 24,9 15 8 O 1015,8 25 60
11.08.2018 13:00:00 31,0 24,9 18 10 ONO 1015,9 25 60
11.08.2018 12:00:00 31,0 24,7 15 8 ONO 1016,1 25 60
11.08.2018 11:00:00 30,6 24,0 13 7 ONO 1015,9 25 60
11.08.2018 10:00:00 30,2 24,1 9 5 NO 1015,9 25 60
11.08.2018 09:00:00 28,0 22,7 8 4 NO 1015,9 25 60
11.08.2018 08:00:00 27,2 22,6 4 2 NNO 1015,9 20 60
11.08.2018 07:00:00 - - - - - - - -
11.08.2018 06:00:00 - - - - - - - -
11.08.2018 05:00:00 - - - - - - - -
11.08.2018 04:00:00 - - - - - - - -
11.08.2018 03:00:00 - - - - - - - -
11.08.2018 02:00:00 - - - - - - - -
11.08.2018 01:00:00 - - - - - - - -
11.08.2018 00:00:00 - - - - - - - -
10.08.2018 23:00:00 - - - - - - - -
10.08.2018 22:00:00 - - - - - - - -
10.08.2018 21:00:00 - - - - - - - -
10.08.2018 20:00:00 29,8 22,8 4 2 W 1015,7 18 24
10.08.2018 19:00:00 30,2 21,6 4 2 WZW 1015,8 20 60
10.08.2018 18:00:00 30,8 22,9 8 4 ZW 1015,8 20 60
10.08.2018 17:00:00 30,8 23,5 8 4 ZW 1015,8 20 60
10.08.2018 16:00:00 31,0 23,1 5 3 O 1015,8 20 60
10.08.2018 15:00:00 31,0 23,4 4 2 ZW 1016,5 20 60
10.08.2018 14:00:00 31,0 23,1 5 3 O 1016,6 20 60
10.08.2018 13:00:00 31,0 23,1 9 5 O 1016,6 20 60
10.08.2018 12:00:00 30,8 21,3 8 4 O 1016,6 20 60
10.08.2018 11:00:00 30,2 20,7 4 2 O 1016,2 18 60
10.08.2018 10:00:00 29,4 20,8 2 1 ONO 1015,8 12 60
10.08.2018 09:00:00 29,0 21,3 2 1 ONO 1015,8 10 60
10.08.2018 08:00:00 - - - - - - - -
10.08.2018 07:00:00 - - - - - - - -
10.08.2018 06:00:00 - - - - - - - -
10.08.2018 05:00:00 - - - - - - - -
10.08.2018 04:00:00 - - - - - - - -
10.08.2018 03:00:00 - - - - - - - -
10.08.2018 02:00:00 - - - - - - - -
10.08.2018 01:00:00 - - - - - - - -
10.08.2018 00:00:00 - - - - - - - -
09.08.2018 23:00:00 - - - - - - - -
09.08.2018 22:00:00 - - - - - - - -
09.08.2018 21:00:00 - - - - - - - -
09.08.2018 20:00:00 28,0 24,0 2 1 ZZW 1013,7 20 18
09.08.2018 19:00:00 28,4 24,0 4 2 ZZO 1013,7 20 60
09.08.2018 18:00:00 28,8 23,5 5 3 Z 1013,8 20 42
09.08.2018 17:00:00 30,0 23,0 5 3 ZZO 1013,8 20 60
09.08.2018 16:00:00 30,2 23,4 9 5 ZO 1013,6 20 60
09.08.2018 15:00:00 30,4 24,1 11 6 ZO 1013,7 20 60
09.08.2018 14:00:00 30,0 24,9 11 6 O 1013,8 20 60
09.08.2018 13:00:00 29,6 24,7 11 6 O 1013,8 20 42
09.08.2018 12:00:00 29,6 24,7 11 6 ONO 1013,8 20 36
09.08.2018 11:00:00 29,0 23,7 11 6 ONO 1013,8 20 60
09.08.2018 10:00:00 28,8 22,8 13 7 ONO 1013,8 20 54
09.08.2018 09:00:00 26,2 20,5 9 5 NO 1013,9 20 36
09.08.2018 08:00:00 26,0 21,4 9 5 NO 1013,7 18 18
09.08.2018 07:00:00 - - - - - - - -
09.08.2018 06:00:00 - - - - - - - -
09.08.2018 05:00:00 - - - - - - - -
09.08.2018 04:00:00 - - - - - - - -
09.08.2018 03:00:00 - - - - - - - -
09.08.2018 02:00:00 - - - - - - - -
09.08.2018 01:00:00 - - - - - - - -

tt = temperatuur
td = dauwpunt
ff = windsnelheid
dd = windrichting
ppp = luchtdruk
vv = zicht
sd = Zonneschijnduur

Weerstations in de omgeving